Lid_Strength_Index
10 13 14 12 12 12 12 14 14 12 11 12 13 13 12 12 12 13 13 12 12 13 13 12 11 10 9 9 8 8 8 7 8 8 9 10 12 12 12 12 12 11 11 11
12 14 11 10 11 11 12 13 14 12 12 13 13 13 11 12 11 11 11 12 12 14 13 12 11 11 10 10 9 8 7 7 7 8 9 11 12 13 13 13 13 13 12 12
13 11 9 10 11 12 12 13 14 13 13 13 14 15 13 11 11 11 11 11 11 13 13 13 12 11 11 10 9 8 7 7 9 11 12 12 13 14 14 14 14 14 13 13
12 9 10 11 11 11 14 11 12 12 14 16 14 18 15 13 12 12 11 12 12 13 13 12 12 12 11 11 9 9 9 10 11 11 12 13 14 15 16 15 15 15 14 14
12 12 12 12 11 10 13 12 12 13 15 16 16 18 16 13 13 11 12 12 13 14 13 13 12 12 12 12 11 11 10 11 12 12 13 14 15 15 15 15 16 16 15 15
12 11 11 11 11 11 11 12 13 14 15 19 15 16 16 14 12 11 13 14 14 14 14 13 13 13 14 14 13 13 14 14 13 13 14 14 15 15 16 16 16 16 16 16
13 12 11 11 13 12 12 14 18 19 20 19 16 17 14 13 12 12 12 14 14 14 15 14 15 15 16 16 16 15 15 15 14 14 15 15 15 15 16 16 16 16 16 17
15 17 13 12 12 13 14 14 18 22 21 20 18 19 16 13 12 13 12 12 14 15 14 15 15 15 16 16 16 16 16 15 15 15 15 15 15 15 15 15 16 16 16 17
15 15 13 13 11 11 15 16 13 17 24 22 18 16 14 14 14 15 14 14 15 15 15 16 16 16 16 16 16 16 16 16 16 15 15 15 15 15 15 16 16 17 17 17
12 15 14 14 12 13 14 13 17 18 23 24 19 19 16 16 15 15 15 15 15 15 16 16 16 16 16 15 17 17 16 16 16 16 15 15 16 16 16 16 17 17 17 17
12 12 17 15 15 15 15 16 15 15 18 21 22 18 14 13 13 15 14 14 15 15 15 15 15 16 15 16 16 16 16 16 16 16 16 16 16 16 16 17 17 17 18 18
11 12 18 16 15 14 14 14 15 17 19 18 19 16 14 14 13 14 14 13 13 14 15 15 16 16 16 16 17 17 17 16 16 16 16 17 17 17 17 17 18 18 18 18
11 14 18 18 16 15 15 14 12 13 17 17 20 17 15 15 14 14 15 14 14 14 15 16 16 16 16 17 17 17 17 16 16 16 17 17 17 17 18 18 18 18 18 18
9 13 14 16 15 14 17 15 14 13 16 17 16 14 16 15 14 14 14 14 14 14 15 15 16 16 16 16 17 17 17 16 16 17 17 17 18 17 18 18 18 18 18 19
10 14 14 13 13 14 15 15 14 15 14 15 14 14 12 13 14 13 14 15 15 14 15 15 15 16 16 16 17 17 17 16 16 16 17 17 17 17 17 17 18 18 18 18
11 14 14 14 14 13 14 14 15 14 14 14 13 14 12 11 11 14 13 14 14 14 14 14 14 15 16 16 16 17 16 16 16 16 16 16 17 17 17 17 17 18 18 18
13 14 15 17 14 14 17 14 13 13 13 14 16 13 13 12 12 14 14 13 13 13 13 14 14 15 15 15 15 16 16 16 16 16 16 16 16 17 16 16 17 18 18 19
14 13 14 17 15 21 14 12 11 12 11 12 13 13 14 12 12 13 13 13 13 13 13 13 13 14 15 15 15 16 16 16 16 16 16 16 16 16 16 17 17 18 18 18
10 13 15 18 18 15 14 16 14 14 13 10 11 11 10 13 14 14 13 13 12 12 12 12 13 13 14 15 15 16 16 16 16 16 16 16 15 16 16 17 17 17 18 18
14 12 14 16 19 20 17 17 16 12 15 12 11 10 10 14 15 12 14 13 13 13 13 13 13 14 14 14 15 15 16 16 16 15 15 15 14 15 16 15 16 17 17 17
16 15 16 16 18 16 16 18 16 17 16 19 17 15 15 14 12 13 14 14 14 14 14 13 13 13 13 14 14 15 15 16 15 15 16 16 15 15 15 15 17 19 17 17
17 17 17 16 17 19 15 17 15 15 16 16 16 16 15 16 16 16 15 15 15 14 15 15 15 15 15 15 14 16 16 15 17 17 16 15 15 15 16 17 18 18 18 18
16 15 16 14 15 16 16 15 15 15 16 16 15 16 16 17 17 17 17 16 16 15 15 15 15 16 16 16 15 16 17 17 17 17 17 17 18 17 16 16 18 19 18 16
16 15 14 15 15 16 16 14 15 16 17 16 15 15 16 17 17 17 17 17 17 18 17 18 17 18 19 20 18 19 18 18 18 19 20 21 19 21 22 19 18 17 18 18
14 14 16 17 17 16 15 15 14 15 16 16 16 15 15 16 17 17 17 18 18 18 19 18 18 19 20 20 21 22 20 19 20 21 21 21 21 21 21 20 20 19 20 16
16 15 15 16 14 13 13 13 13 13 15 16 16 16 16 16 16 16 17 17 17 18 20 20 21 20 22 21 23 25 24 21 20 20 20 21 20 21 21 20 21 14 13 12